Weather History for KPTT - May, 2013

Change the Weather History Date:

Friday, May 3, 2013

  Actual Average (KP28) Record (KP28)
Temperature  
Mean Temperature 46 °F 62 °F  
Max Temperature 59 °F 74 °F 101 °F (1950)
Min Temperature 32 °F 50 °F 28 °F (1954)
Degree Days  
Heating Degree Days 20 4  
Month to date heating degree days 14  
Since 1 July heating degree days 4399  
Cooling Degree Days 0 2  
Month to date cooling degree days 5  
Year to date cooling degree days 29  
Moisture  
Dew Point 28 °F    
Average Humidity 60    
Maximum Humidity 93    
Minimum Humidity 25    
Precipitation  
Precipitation 0.00 in 0.11 in 2.25 in (1991)
Month to date precipitation 0.32  
Year to date precipitation 6.76  
Snow  
Snow 0.00 in 0.00 in - ()
Month to date snowfall 0.0  
Since 1 July snowfall 8.5  
Snow Depth -    
Sea Level Pressure  
Sea Level Pressure 30.21 in    
Wind  
Wind Speed 10 mph (NNW)    
Max Wind Speed 20 mph    
Max Gust Speed 29 mph    
Visibility 10 miles    
Events      
T = Trace of Precipitation, MM = Missing Value Source: NWS Daily Summary

Daily Weather History Graph

Daily Weather History Graph

Search for Another Location

Airport or City:

Trip Planner

Search our weather history database for the weather conditions in past years. The results will help you decide how hot, cold, wet, or windy it might be!

Date:

Astronomy

May. 03, 2013 Rise Set
Actual Time 6:36 AM CDT 8:27 PM CDT
Civil Twilight 6:08 AM CDT 8:55 PM CDT
Nautical Twilight 5:34 AM CDT 9:30 PM CDT
Astronomical Twilight 4:57 AM CDT 10:07 PM CDT
Moon 2:55 AM CDT (5/3) 2:30 PM CDT (5/3)
Length of Visible Light 14h 47m
Length of Day
13h 50m
Last Quarter, 37% of the Moon is Illuminated
May 3
Last Quarter
May 9
New
May 17
First Quarter
May 24
Full
May 31
Last Quarter

Hourly Weather History & Observations

Time (CDT) Temp. Windchill Dew Point Humidity Pressure Visibility Wind Dir Wind Speed Gust Speed Precip Events Conditions
12:15 AM 33.8 °F 28.6 °F 32.0 °F 93% 30.42 in 10.0 mi NW 5.8 mph - N/A   Clear
12:55 AM 33.8 °F 27.0 °F 30.2 °F 87% 30.41 in 10.0 mi NW 8.1 mph - N/A   Clear
1:15 AM 33.8 °F 26.4 °F 30.2 °F 87% 30.41 in 10.0 mi NW 9.2 mph - N/A   Clear
1:35 AM 33.8 °F 26.4 °F 30.2 °F 87% 30.40 in 10.0 mi NW 9.2 mph - N/A   Clear
1:55 AM 32.0 °F 24.8 °F 30.2 °F 93% 30.39 in 10.0 mi WNW 8.1 mph - N/A   Clear
2:15 AM 32.0 °F 24.8 °F 30.2 °F 93% 30.39 in 10.0 mi WNW 8.1 mph - N/A   Clear
2:35 AM 32.0 °F 25.6 °F 30.2 °F 93% 30.38 in 10.0 mi NW 6.9 mph - N/A   Clear
2:55 AM 32.0 °F 24.8 °F 30.2 °F 93% 30.37 in 10.0 mi WNW 8.1 mph - N/A   Clear
3:15 AM 32.0 °F 24.2 °F 30.2 °F 93% 30.36 in 10.0 mi WNW 9.2 mph - N/A   Clear
3:35 AM 32.0 °F 24.2 °F 28.4 °F 87% 30.35 in 10.0 mi NW 9.2 mph - N/A   Clear
3:55 AM 32.0 °F 24.2 °F 28.4 °F 87% 30.35 in 10.0 mi WNW 9.2 mph - N/A   Clear
4:15 AM 32.0 °F 24.8 °F 28.4 °F 87% 30.35 in 10.0 mi WNW 8.1 mph - N/A   Clear
4:35 AM 32.0 °F 24.8 °F 28.4 °F 87% 30.34 in 10.0 mi WNW 8.1 mph - N/A   Clear
4:55 AM 32.0 °F 24.8 °F 28.4 °F 87% 30.34 in 10.0 mi WNW 8.1 mph - N/A   Clear
5:15 AM 32.0 °F 24.2 °F 28.4 °F 87% 30.33 in 10.0 mi NW 9.2 mph - N/A   Clear
5:35 AM 32.0 °F 24.8 °F 28.4 °F 87% 30.33 in 10.0 mi NW 8.1 mph - N/A   Clear
5:55 AM 32.0 °F 24.8 °F 28.4 °F 87% 30.32 in 10.0 mi NW 8.1 mph - N/A   Clear
6:15 AM 32.0 °F 23.6 °F 28.4 °F 87% 30.32 in 10.0 mi NW 10.4 mph - N/A   Clear
6:35 AM 32.0 °F 24.2 °F 28.4 °F 87% 30.32 in 10.0 mi WNW 9.2 mph - N/A   Clear
6:55 AM 32.0 °F 24.8 °F 28.4 °F 87% 30.32 in 10.0 mi NW 8.1 mph - N/A   Clear
7:15 AM 32.0 °F 23.6 °F 28.4 °F 87% 30.32 in 10.0 mi NW 10.4 mph - N/A   Clear
7:35 AM 32.0 °F 24.2 °F 28.4 °F 87% 30.31 in 10.0 mi NW 9.2 mph - N/A   Clear
7:55 AM 33.8 °F 27.0 °F 30.2 °F 87% 30.31 in 10.0 mi NW 8.1 mph - N/A   Clear
8:15 AM 35.6 °F 29.2 °F 30.2 °F 81% 30.31 in 10.0 mi NW 8.1 mph - N/A   Clear
8:35 AM 37.4 °F 31.4 °F 32.0 °F 81% 30.30 in 10.0 mi NNW 8.1 mph - N/A   Clear
8:55 AM 41.0 °F 34.7 °F 32.0 °F 70% 30.30 in 10.0 mi North 10.4 mph - N/A   Clear
9:15 AM 42.8 °F 37.5 °F 32.0 °F 66% 30.29 in 10.0 mi North 9.2 mph - N/A   Clear
9:55 AM 44.6 °F 39.7 °F 28.4 °F 53% 30.28 in 10.0 mi NNE 9.2 mph - N/A   Clear
10:15 AM 46.4 °F 42.4 °F 30.2 °F 53% 30.27 in 10.0 mi North 8.1 mph - N/A   Clear
10:35 AM 48.2 °F - 30.2 °F 50% 30.27 in 10.0 mi NNW 6.9 mph - N/A   Clear
11:15 AM 51.8 °F - 30.2 °F 44% 30.25 in 10.0 mi NNW 9.2 mph - N/A   Clear
11:35 AM 51.8 °F - 30.2 °F 44% 30.25 in 10.0 mi NNW 10.4 mph - N/A   Clear
11:55 AM 53.6 °F - 30.2 °F 41% 30.24 in 10.0 mi NNW 13.8 mph - N/A   Clear
12:35 PM 53.6 °F - 30.2 °F 41% 30.21 in 10.0 mi North 11.5 mph 21.9 mph N/A   Clear
12:55 PM 55.4 °F - 28.4 °F 36% 30.20 in 10.0 mi North 15.0 mph 23.0 mph N/A   Clear
1:15 PM 55.4 °F - 26.6 °F 33% 30.19 in 10.0 mi North 10.4 mph 19.6 mph N/A   Scattered Clouds
1:35 PM 55.4 °F - 26.6 °F 33% 30.18 in 10.0 mi North 17.3 mph 27.6 mph N/A   Mostly Cloudy
1:55 PM 55.4 °F - 26.6 °F 33% 30.17 in 10.0 mi North 15.0 mph 21.9 mph N/A   Mostly Cloudy
2:15 PM 55.4 °F - 24.8 °F 31% 30.16 in 10.0 mi NNW 16.1 mph 21.9 mph N/A   Mostly Cloudy
2:35 PM 59.0 °F - 26.6 °F 29% 30.15 in 10.0 mi NNW 12.7 mph 28.8 mph N/A   Scattered Clouds
2:55 PM 55.4 °F - 24.8 °F 31% 30.14 in 10.0 mi North 16.1 mph 25.3 mph N/A   Scattered Clouds
3:15 PM 55.4 °F - 21.2 °F 26% 30.13 in 10.0 mi North 13.8 mph - N/A   Scattered Clouds
3:35 PM 59.0 °F - 26.6 °F 29% 30.12 in 10.0 mi North 19.6 mph 25.3 mph N/A   Scattered Clouds
3:55 PM 57.2 °F - 24.8 °F 29% 30.11 in 10.0 mi North 10.4 mph 27.6 mph N/A   Scattered Clouds
4:15 PM 59.0 °F - 24.8 °F 27% 30.10 in 10.0 mi NNW 16.1 mph 24.2 mph N/A   Scattered Clouds
4:35 PM 59.0 °F - 23.0 °F 25% 30.09 in 10.0 mi NNW 15.0 mph 26.5 mph N/A   Scattered Clouds
4:55 PM 59.0 °F - 24.8 °F 27% 30.09 in 10.0 mi North 16.1 mph 27.6 mph N/A   Scattered Clouds
5:15 PM 59.0 °F - 23.0 °F 25% 30.08 in 10.0 mi NNW 12.7 mph 25.3 mph N/A   Scattered Clouds
5:35 PM 59.0 °F - 23.0 °F 25% 30.08 in 10.0 mi North 18.4 mph 24.2 mph N/A   Clear
5:55 PM 57.2 °F - 23.0 °F 27% 30.08 in 10.0 mi North 18.4 mph - N/A   Scattered Clouds
6:15 PM 57.2 °F - 23.0 °F 27% 30.07 in 10.0 mi North 18.4 mph 25.3 mph N/A   Clear
6:35 PM 57.2 °F - 23.0 °F 27% 30.07 in 10.0 mi North 16.1 mph - N/A   Clear
6:55 PM 55.4 °F - 23.0 °F 29% 30.06 in 10.0 mi North 17.3 mph 25.3 mph N/A   Clear
7:15 PM 55.4 °F - 26.6 °F 33% 30.05 in 10.0 mi North 17.3 mph - N/A   Clear
7:35 PM 53.6 °F - 23.0 °F 30% 30.05 in 10.0 mi North 13.8 mph - N/A   Clear
7:55 PM 53.6 °F - 26.6 °F 35% 30.05 in 10.0 mi North 10.4 mph - N/A   Clear
8:15 PM 50.0 °F - 28.4 °F 43% 30.05 in 10.0 mi North 8.1 mph - N/A   Clear
8:35 PM 48.2 °F - 28.4 °F 46% 30.05 in 10.0 mi North 6.9 mph - N/A   Clear
8:55 PM 46.4 °F 42.9 °F 30.2 °F 53% 30.05 in 10.0 mi North 6.9 mph - N/A   Clear
9:15 PM 44.6 °F 40.7 °F 30.2 °F 57% 30.05 in 10.0 mi North 6.9 mph - N/A   Clear
9:35 PM 42.8 °F 38.6 °F 32.0 °F 66% 30.06 in 10.0 mi North 6.9 mph - N/A   Clear
9:55 PM 42.8 °F 40.1 °F 32.0 °F 66% 30.07 in 10.0 mi North 4.6 mph - N/A   Clear
10:15 PM 41.0 °F 36.4 °F 32.0 °F 70% 30.07 in 10.0 mi North 6.9 mph - N/A   Clear
10:55 PM 39.2 °F 35.9 °F 32.0 °F 75% 30.07 in 10.0 mi NNW 4.6 mph - N/A   Clear
11:15 PM 39.2 °F 35.0 °F 32.0 °F 75% 30.06 in 10.0 mi NNW 5.8 mph - N/A   Clear
11:35 PM 37.4 °F 32.1 °F 30.2 °F 75% 30.05 in 10.0 mi North 6.9 mph - N/A   Clear
11:55 PM 37.4 °F 32.8 °F 30.2 °F 75% 30.05 in 10.0 mi NNW 5.8 mph - N/A   Clear